Weather History for KCOS - February, 2012

Change the Weather History Date:

Saturday, February 4, 2012

  Actual Average Record
Temperature  
Mean Temperature 27 °F 31 °F  
Max Temperature 33 °F 43 °F 69 °F (1935)
Min Temperature 20 °F 18 °F -15 °F (1989)
Degree Days  
Heating Degree Days 38 34  
Month to date heating degree days 134 136  
Since 1 July heating degree days 3407 3779  
Cooling Degree Days 0 0  
Month to date cooling degree days 0 0  
Year to date cooling degree days 0 0  
Moisture  
Dew Point 16 °F    
Average Humidity 65    
Maximum Humidity 81    
Minimum Humidity 49    
Precipitation  
Precipitation T in 0.01 in 0.63 in (1989)
Month to date precipitation 0.18 0.04  
Year to date precipitation 0.20 0.36  
Snow  
Snow T in 0.20 in 12.30 in (1989)
Month to date snowfall 2.7 0.7  
Since 1 July snowfall 19.5 19.8  
Snow Depth 3.00 in    
Sea Level Pressure  
Sea Level Pressure 30.47 in    
Wind  
Wind Speed 11 mph (NNW)    
Max Wind Speed 24 mph    
Max Gust Speed 33 mph    
Visibility 9 miles    
Events Snow    
T = Trace of Precipitation, MM = Missing Value Source: NWS Daily Summary

Daily Weather History Graph

Daily Weather History Graph

Search for Another Location

Airport or City:

Trip Planner

Search our weather history database for the weather conditions in past years. The results will help you decide how hot, cold, wet, or windy it might be!

Date:

Astronomy

Feb. 04, 2012 Rise Set
Actual Time 7:02 AM MST 5:23 PM MST
Civil Twilight 6:34 AM MST 5:51 PM MST
Nautical Twilight 6:02 AM MST 6:22 PM MST
Astronomical Twilight 5:31 AM MST 6:54 PM MST
Moon 2:24 PM MST (2/4) 4:28 AM MST (2/4)
Length of Visible Light 11h 16m
Length of Day
10h 20m
Waxing Gibbous, 89% of the Moon is Illuminated
Feb 4
Waxing Gibbous
Feb 7
Full
Feb 14
Last Quarter
Feb 21
New
Feb 29
First Quarter

Hourly Weather History & Observations

Time (MST) Temp. Windchill Dew Point Humidity Pressure Visibility Wind Dir Wind Speed Gust Speed Precip Events Conditions
12:54 AM 24.1 °F 11.5 °F 18.0 °F 77% 30.45 in 7.0 mi North 15.0 mph 21.9 mph 0.00 in Snow Light Snow
1:54 AM 25.0 °F 9.9 °F 16.0 °F 69% 30.44 in 9.0 mi NNW 23.0 mph 28.8 mph 0.00 in   Partly Cloudy
2:54 AM 23.0 °F 11.7 °F 16.0 °F 74% 30.46 in 9.0 mi WNW 11.5 mph - N/A   Partly Cloudy
3:54 AM 23.0 °F 9.6 °F 16.0 °F 74% 30.45 in 9.0 mi NNW 16.1 mph 23.0 mph N/A   Partly Cloudy
4:54 AM 24.1 °F 12.0 °F 15.1 °F 69% 30.45 in 10.0 mi NNW 13.8 mph 26.5 mph N/A   Scattered Clouds
5:08 AM 24.8 °F 11.1 °F 17.6 °F 74% 30.30 in 9.0 mi NNW 18.4 mph 31.1 mph N/A   Mostly Cloudy
5:54 AM 24.1 °F 11.5 °F 16.0 °F 71% 30.48 in 10.0 mi NNW 15.0 mph 26.5 mph N/A   Mostly Cloudy
6:29 AM 23.0 °F 9.6 °F 15.8 °F 74% 30.33 in 10.0 mi NW 16.1 mph 21.9 mph N/A   Scattered Clouds
6:54 AM 23.0 °F 11.1 °F 15.1 °F 72% 30.51 in 10.0 mi NNW 12.7 mph - N/A   Partly Cloudy
7:48 AM 24.8 °F 12.4 °F 15.8 °F 69% 30.36 in 10.0 mi NNW 15.0 mph - N/A   Mostly Cloudy
7:54 AM 24.1 °F 12.0 °F 16.0 °F 71% 30.53 in 10.0 mi NW 13.8 mph 21.9 mph N/A   Mostly Cloudy
8:54 AM 25.0 °F 13.6 °F 17.1 °F 72% 30.54 in 10.0 mi NNW 12.7 mph 18.4 mph N/A   Scattered Clouds
9:54 AM 27.0 °F 14.7 °F 16.0 °F 63% 30.53 in 10.0 mi North 16.1 mph - N/A   Partly Cloudy
10:54 AM 28.0 °F 15.7 °F 15.1 °F 58% 30.53 in 10.0 mi North 17.3 mph - N/A   Partly Cloudy
11:54 AM 28.9 °F 17.3 °F 18.0 °F 64% 30.50 in 10.0 mi North 16.1 mph - N/A   Mostly Cloudy
12:54 PM 30.0 °F 20.0 °F 18.0 °F 61% 30.49 in 10.0 mi NNE 12.7 mph - N/A   Mostly Cloudy
1:54 PM 32.0 °F 26.4 °F 16.0 °F 52% 30.46 in 10.0 mi WNW 5.8 mph - N/A   Partly Cloudy
2:54 PM 32.0 °F 27.5 °F 17.1 °F 54% 30.47 in 10.0 mi SSW 4.6 mph - N/A   Scattered Clouds
3:04 PM 32.0 °F 28.7 °F 15.8 °F 51% 30.33 in 10.0 mi South 3.5 mph - N/A   Scattered Clouds
3:54 PM 30.0 °F 20.0 °F 18.0 °F 61% 30.48 in 10.0 mi SSE 12.7 mph - N/A   Scattered Clouds
4:54 PM 28.0 °F 21.7 °F 17.1 °F 63% 30.50 in 10.0 mi ESE 5.8 mph - N/A   Partly Cloudy
5:54 PM 25.0 °F 17.1 °F 15.1 °F 66% 30.53 in 10.0 mi ENE 6.9 mph - N/A   Mostly Cloudy
6:54 PM 26.1 °F - 16.0 °F 66% 30.54 in 10.0 mi Calm Calm - N/A   Overcast
7:54 PM 26.1 °F 18.4 °F 18.0 °F 71% 30.55 in 10.0 mi SSW 6.9 mph - N/A   Overcast
8:54 PM 25.0 °F 19.3 °F 17.1 °F 72% 30.54 in 9.0 mi South 4.6 mph - N/A   Overcast
9:54 PM 24.1 °F 18.2 °F 17.1 °F 75% 30.53 in 8.0 mi South 4.6 mph - N/A   Overcast
10:54 PM 23.0 °F 17.0 °F 17.1 °F 78% 30.54 in 8.0 mi ESE 4.6 mph - N/A   Mostly Cloudy
11:42 PM 19.4 °F 14.3 °F 15.8 °F 86% 30.38 in 8.0 mi ESE 3.5 mph - N/A   Partly Cloudy
11:54 PM 19.9 °F - 16.0 °F 85% 30.54 in 8.0 mi Calm Calm - N/A   Partly Cloudy